GSAT0220 (GALILEO 24) (43567 NORAD) Tracking and Keplerian Element Data

This shows tracking and keplerian element data for the satellite.

Feedback or suggestion? Click here.




ElementValue
Catalog43567
NameGSAT0220 (GALILEO 24)
Epoch Orbit600
Epoch Day193.43990905
Epoch Year2019
RAAN50.4046
Inclination56.5821
Eccentricity0.0002267
Argument of Perigee293.1688
Mean Anonmoly66.8716
Mean Motion1.70475564
Decay Rate-7.8E-07
L11 43567U 18060D 19193.43990905 -.00000078 00000-0 00000+0 0 9997
L22 43567 56.5821 50.4046 0002267 293.1688 66.8716 1.70475564 6006

Live tracking and technical data element details for GSAT0220 (GALILEO 24) (NORAD 43567). GSAT0220 (GALILEO 24) can be tracked NOW for your location showing map with azimuth and elevation plus other details from your city location.

Track the satellite on the map from your city or location and see movement details for azimuth, elevation, latitude, longitude, range, height, and movement on the map or in text.







IsCatalogInMostPopularTable: catalog: 43567, numindb: 177
Update: records affected: 1



GetName: 43567 GSAT0220 (GALILEO 24)

Hit Count: updated at: Wed, 17 Jul 2019 08:50:09 GMT